Location: Seattle
(47.6064°N, 122.3308°W)
Time: 01:23:41
(UTC-07:00)

STRAND 1 - Pass Details

Date: 06 April 2023
Orbit: 767 x 779 km, 98.4° (Epoch: 02 June)

Event Time Altitude Azimuth Distance (km) Brightness Sun altitude
Rises 04:59:15 0° 102° (ESE) 3,247 ? -16.4°
Reaches altitude 10° 05:03:25 10° 68° (ENE) 2,322 ? -15.8°
Maximum altitude 05:04:48 11° 52° (NE) 2,248 ? -15.6°
Drops below altitude 10° 05:06:11 10° 36° (NE) 2,324 ? -15.4°
Sets 05:10:21 0° 3° (N) 3,254 ? -14.8°
